Regional Weather Roundup
Issued by NWS

Home | Current Version | Previous Version | Text Only | Print | Product List | Glossary Off
Versions: 1 2 3 4 5 6 7 8 9 10 11 12 13 14 15 16 17 18 19 20 21 22 23 24 25 26 27 28 29 30 31 32 33 34 35 36 37 38 39 40 41 42 43 44 45 46 47 48 49 50

000
ASUS43 KDTX 172001
RWRMI
MICHIGAN HOURLY REGIONAL WEATHER ROUNDUP
NATIONAL WEATHER SERVICE DETROIT/PONTIAC MI
300 PM EST WED DEC 17 2014

NOTE: "FAIR" INDICATES FEW OR NO CLOUDS BELOW 12,000 FEET WITH NO
SIGNIFICANT WEATHER AND/OR OBSTRUCTION TO VISIBILITY.

MIZ047>049-052>055-059>063-066>070-074>076-081>083-172100-
SOUTHEAST LOWER MICHIGAN

CITY           SKY/WX    TMP DP  RH WIND       PRES   REMARKS
ADRIAN         CLOUDY    29  21  72 NW16G23   30.11S WCI  17
ALMA           CLOUDY    29  22  77 W12G20    30.07R WCI  19
ANN ARBOR      CLOUDY    31  22  69 W18       30.07S WCI  19
BAD AXE        CLOUDY    31  28  88 W17G25    29.98R WCI  19
CARO           CLOUDY    31  24  74 W14G24    30.02R WCI  21
DETROIT CITY   CLOUDY    33  21  61 W12G23    30.06S WCI  24
DETROIT        CLOUDY    32  22  66 W16G23    30.08R WCI  21
FLINT          CLOUDY    30  20  66 W22G30    30.06R WCI  17
GROSSE ILE     CLOUDY    32  25  74 W13G18    30.07R WCI  22
HILLSDALE      CLOUDY    28  23  80 W12G24    30.09S WCI  18
HOWELL         CLOUDY    29  22  74 W9        30.06S WCI  21

CITY           SKY/WX    TMP DP  RH WIND       PRES   REMARKS
JACKSON        CLOUDY    29  22  75 W13G23    30.08S WCI  19
LAMBERTVILLE   CLOUDY    32  23  69 W14G20    30.11S WCI  22
LANSING        CLOUDY    29  20  69 NW13G20   30.08S WCI  19
LAPEER         CLOUDY    29  22  75 W13       30.03S WCI  19
MASON          CLOUDY    29  21  71 W13G25    30.08R WCI  19
MONROE         CLOUDY    30  25  80 W15       30.08S WCI  19
MT. CLEMENS    CLOUDY    31  22  69 W17G24    30.02S WCI  20
PONTIAC        FLURRIES  29  19  66 W18G29    30.03S WCI  16
PORT HOPE        N/A     32  26  78 W10G20    29.94S WCI  24
PORT HURON     CLOUDY    30  23  74 W14G22    30.03R WCI  20
TRI CITIES     CLOUDY    32  22  66 W18G25    30.04R WCI  20
TROY           CLOUDY    33  22  64 W15G21    30.07S WCI  22
SAGINAW HB     CLOUDY    32  23  69 W20       30.04R WCI  20
$$
MIZ043>046-050>051-056>058-064>065-071>073-077>080-172100-
SOUTHWEST LOWER MICHIGAN

CITY           SKY/WX    TMP DP  RH WIND       PRES   REMARKS
BATTLE CREEK   CLOUDY    29  21  72 W16G24    30.11R WCI  17
BENTON HARBOR  CLOUDY    28  21  75 W9G20     30.17S WCI  19
BIG RAPIDS     CLOUDY    27  23  85 W12G21    30.05S WCI  16
COLDWATER      CLOUDY    28  22  77 W13G20    30.11S WCI  18
FREMONT        CLOUDY    27  18  68 W17       30.10S WCI  15
HOLLAND        FLURRIES  30  20  66 NW10G23   30.14S WCI  21
GRAND RAPIDS   LGT SNOW  28  23  81 W14       30.10S WCI  17
IONIA          LGT SNOW  29  25  84 NW13      30.08R WCI  19
KALAMAZOO      CLOUDY    29  20  69 W16G26    30.13S WCI  17
LUDINGTON      CLOUDY    31  23  72 NW12      30.11S WCI  21
MARSHALL       CLOUDY    28  21  75 W17G25    30.09S WCI  16
MOUNT PLEASANT CLOUDY    29  22  75 W14       30.04S WCI  19
MUSKEGON       CLOUDY    29  18  63 NW16G30   30.13S WCI  17
SOUTH HAVEN    CLOUDY    30  21  68 W12G21    30.16S WCI  21
$$
MIZ016>042-172100-
NORTHERN LOWER MICHIGAN

CITY           SKY/WX    TMP DP  RH WIND       PRES   REMARKS
ALPENA         FLURRIES  29  26  89 NW12      29.94R WCI  19
BEAVER ISLAND  LGT SNOW  28  24  85 NW9G17    30.01R WCI  19
BELLAIRE       FLURRIES  31  27  85 W5        30.00S WCI  26
CADILLAC       SNOW      26  23  90 W8        29.99S VSB 1/2 WCI  17
CHARLEVOIX     CLOUDY    29  25  85 NW16G23   30.02S WCI  17
FRANKFORT      SNOW      27  26  94 NW15      30.07S VSB 1/2 WCI  15
GAYLORD        LGT SNOW  26  23  88 W10       29.93S FOG     WCI  16
GRAYLING       FLURRIES  28  25  89 W12       29.96S WCI  18
HARBOR SPRINGS LGT SNOW  28  24  85 W8        29.98R WCI  20
HOUGHTON LAKE  LGT SNOW  26  23  88 W14       29.98R VSB 1   WCI  14
MANISTEE       CLOUDY    27  21  80 NW18G26   30.09S WCI  13
OSCODA         FLURRIES  32  29  88 W6        29.94S WCI  26
PELLSTON       LGT SNOW  27  23  85 NW12      29.98R FOG     WCI  17
ROGERS CITY    LGT SNOW  28  28  97 NW8G17    29.96R WCI  20
TRAVERSE CITY  LGT SNOW  29  25  85 W13       30.02S FOG     WCI  19
$$
MIZ007>008-015-172100-
EASTERN UPPER MICHIGAN

CITY           SKY/WX    TMP DP  RH WIND       PRES   REMARKS
KINROSS        CLOUDY    25  23  93 N10       29.96R WCI  15
MACKINAC ISLAN LGT SNOW  26  26  98 N8        29.96S WCI  18
NEWBERRY       CLOUDY    24  22  94 N10       29.99R FOG     WCI  13
S. S. MARIE    FLURRIES  24  18  77 NW7       29.95R WCI  16
$$
MIZ004>006-011>014-085-172100-
CENTRAL UPPER MICHIGAN

CITY           SKY/WX    TMP DP  RH WIND       PRES   REMARKS
MANISTIQUE     CLOUDY    28  25  89 NW13      30.02R WCI  17
ESCANABA       CLOUDY    28  21  74 NW10G20   30.06R WCI  19
MENOMINEE      CLOUDY    27  16  63 NW7G16    30.10S WCI  19
SAWYER-GWINN   LGT SNOW  25  23  93 N15       30.05R WCI  12
$$
MIZ001>003-009>011-084-172100-
WESTERN UPPER MICHIGAN

CITY           SKY/WX    TMP DP  RH WIND       PRES   REMARKS
IRON MOUNTAIN  MIX PCPN  26  18  71 NW14      30.08R WCI  14
HOUGHTON       FLURRIES  23  18  81 N12G22    30.14R WCI  12
COPPER HARBOR    N/A     27  22  81 NE23G30   30.15R WCI  12
IRONWOOD       CLOUDY    23  19  86 N7        30.16S WCI  15
$$

ABBREVIATIONS USED IN REMARKS
   TC - TEMPERATURE IN CELSIUS
  WCI - WIND CHILL INDEX
   HX - HEAT INDEX
  VSB - VISIBILITY



USA.gov is the U.S. government's official web portal to all federal, state and local government web resources and services.